Find Kosmos-1861

NORAD ID: 18129 Int'l Des: 1987-054 Owner: VMF Country: SU operational
LEOCIRCULARPOLAR

Live Position

Loading 3D Globe...

About Kosmos-1861

Description loading...

Upcoming Passes

Passes for default location (London). Set your location on the main map for personalized predictions.

Altitude History

Loading altitude history...

Two-Line Element Set

1 18129U 87054A 26107.25094359 .00000067 00000-0 56235-4 0 9996
2 18129 82.9299 7.9524 0012774 119.5092 31.6051 13.73261861945177
Epoch: Apr 17, 2026 • Age: 11 hours

Current Status

Altitude 997.2 km
Velocity 7.35 km/s
Sub-Earth Point -6.65°S, 101.55°W
Launch Date Jun 23, 1987
Age 38.8 years
Type other

Technical Details

Classification Payload
Mass 800.00 kg
Dry Mass 800.00 kg
Total Mass 800.00 kg
Length 5.00 m
Diameter 2.10 m
Span 17.00 m
Shape Cyl + Ant
Manufacturer OAZ
Bus Type KAUR-1 11F643
Phase Status In Orbit
Owner/State VMF/SU

Most Searched